Weather reports worldwide

Advertisment
Fehmarnbelt/Grosstonne, Germany (10043): temperature & dewpoint: 10.07.2018 18:00:00 - 16.07.2018 18:00:00 (CEST)Fehmarnbelt/Grosstonne, Germany (10043): water temperature: 10.07.2018 18:00:00 - 16.07.2018 18:00:00 (CEST)Fehmarnbelt/Grosstonne, Germany (10043): reduced air pressure: 10.07.2018 18:00:00 - 16.07.2018 18:00:00 (CEST)
Date & Time tt [°C] td [°C] tw [°C] ppp [hPa]
16.07.2018 18:00:00 - - - -
16.07.2018 17:00:00 22,2 17,0 20,2 1013,7
16.07.2018 16:00:00 22,0 16,5 20,0 1014,0
16.07.2018 15:00:00 - - - -
16.07.2018 14:00:00 21,5 16,5 19,5 1015,2
16.07.2018 13:00:00 21,2 16,4 19,4 1015,5
16.07.2018 12:00:00 - - - -
16.07.2018 11:00:00 - - - -
16.07.2018 10:00:00 20,5 16,2 19,2 1015,9
16.07.2018 09:00:00 19,0 15,5 19,0 1016,3
16.07.2018 08:00:00 18,5 15,5 18,9 1016,5
16.07.2018 07:00:00 18,7 15,7 18,9 1016,6
16.07.2018 06:00:00 18,5 16,0 19,0 1016,6
16.07.2018 05:00:00 18,4 17,4 19,0 1016,4
16.07.2018 04:00:00 18,7 16,5 19,1 1016,4
16.07.2018 03:00:00 - - - -
16.07.2018 02:00:00 19,0 15,9 19,1 1016,7
16.07.2018 01:00:00 - - - -
16.07.2018 00:00:00 19,7 16,2 19,2 1016,9
15.07.2018 23:00:00 - - - -
15.07.2018 22:00:00 19,7 16,9 19,3 1016,7
15.07.2018 21:00:00 20,9 16,4 19,4 1016,6
15.07.2018 20:00:00 20,7 15,7 19,5 1016,4
15.07.2018 19:00:00 20,7 15,5 19,5 1016,6
15.07.2018 18:00:00 21,0 15,5 19,6 1017,1
15.07.2018 17:00:00 21,2 15,2 19,6 1017,6
15.07.2018 16:00:00 20,4 14,5 19,3 1017,8
15.07.2018 15:00:00 19,7 14,2 19,3 1018,1
15.07.2018 14:00:00 19,0 14,5 19,1 1018,5
15.07.2018 13:00:00 18,7 14,7 18,9 1018,9
15.07.2018 12:00:00 - - - -
15.07.2018 11:00:00 18,2 14,4 18,5 1019,0
15.07.2018 10:00:00 17,0 13,5 18,4 1019,0
15.07.2018 09:00:00 16,5 13,2 18,3 1018,8
15.07.2018 08:00:00 16,5 14,2 18,3 1018,6
15.07.2018 07:00:00 16,4 14,0 18,2 1018,3
15.07.2018 06:00:00 16,2 13,7 18,2 1018,1
15.07.2018 05:00:00 - - - -
15.07.2018 04:00:00 16,5 13,2 18,3 1018,2
15.07.2018 03:00:00 16,7 13,5 18,3 1018,3
15.07.2018 02:00:00 16,7 14,2 18,4 1018,3
15.07.2018 01:00:00 17,0 13,9 18,5 1018,4
15.07.2018 00:00:00 17,5 13,7 18,5 1018,1
14.07.2018 23:00:00 17,7 13,7 18,6 1018,1
14.07.2018 22:00:00 18,0 13,2 18,6 1018,1
14.07.2018 21:00:00 18,5 12,2 18,6 1017,8
14.07.2018 20:00:00 18,7 12,7 18,7 1018,1
14.07.2018 19:00:00 18,5 12,2 18,7 1018,3
14.07.2018 18:00:00 18,0 12,2 18,7 1018,4
14.07.2018 17:00:00 18,0 12,7 18,6 1018,8
14.07.2018 16:00:00 17,2 11,5 18,5 1019,4
14.07.2018 15:00:00 17,2 11,9 18,5 1019,7
14.07.2018 14:00:00 16,7 11,2 18,4 1019,8
14.07.2018 13:00:00 16,2 12,2 18,4 1020,1
14.07.2018 12:00:00 16,0 11,2 18,4 1020,1
14.07.2018 11:00:00 15,7 11,2 18,4 1020,1
14.07.2018 10:00:00 16,0 11,4 18,4 1019,9
14.07.2018 09:00:00 15,5 10,9 18,4 1019,6
14.07.2018 08:00:00 15,2 11,2 18,4 1019,4
14.07.2018 07:00:00 - - - -
14.07.2018 06:00:00 15,0 11,5 18,4 1019,0
14.07.2018 05:00:00 15,0 11,7 18,5 1019,0
14.07.2018 04:00:00 15,2 12,4 18,5 1019,0
14.07.2018 03:00:00 15,2 12,0 18,5 1019,0
14.07.2018 02:00:00 15,7 12,7 18,5 1018,8
14.07.2018 01:00:00 16,5 13,2 18,6 1018,8
14.07.2018 00:00:00 - - - -
13.07.2018 23:00:00 - - - -
13.07.2018 22:00:00 - - - -
13.07.2018 21:00:00 18,7 14,7 19,1 1017,7
13.07.2018 20:00:00 19,7 14,5 19,1 1017,2
13.07.2018 19:00:00 20,4 15,2 19,1 1017,1
13.07.2018 18:00:00 20,9 16,0 19,1 1017,2
13.07.2018 17:00:00 21,2 16,2 19,0 1017,4
13.07.2018 16:00:00 - - - -
13.07.2018 15:00:00 21,0 15,0 18,7 1017,6
13.07.2018 14:00:00 20,2 14,7 18,5 1017,8
13.07.2018 13:00:00 19,2 14,5 18,5 1017,7
13.07.2018 12:00:00 18,0 15,2 18,6 1017,8
13.07.2018 11:00:00 18,0 15,2 18,8 1017,6
13.07.2018 10:00:00 17,9 15,2 18,8 1017,2
13.07.2018 09:00:00 17,9 15,7 18,7 1017,2
13.07.2018 08:00:00 17,2 15,7 18,6 1016,7
13.07.2018 07:00:00 17,2 15,9 18,6 1016,5
13.07.2018 06:00:00 16,5 15,5 18,6 1016,3
13.07.2018 05:00:00 16,7 15,7 18,7 1016,2
13.07.2018 04:00:00 17,2 16,0 18,7 1016,1
13.07.2018 03:00:00 - - - -
13.07.2018 02:00:00 18,5 16,7 18,8 1015,9
13.07.2018 01:00:00 19,0 17,0 18,9 1015,9
13.07.2018 00:00:00 - - - -
12.07.2018 23:00:00 20,5 17,0 19,0 1015,7
12.07.2018 22:00:00 20,5 17,0 19,2 1015,3
12.07.2018 21:00:00 21,5 16,7 19,4 1015,0
12.07.2018 20:00:00 22,2 16,2 19,3 1014,8
12.07.2018 19:00:00 - - - -
12.07.2018 18:00:00 21,5 16,0 19,2 1014,7
12.07.2018 17:00:00 21,7 15,7 19,2 1014,6
12.07.2018 16:00:00 21,9 16,0 19,0 1014,8
12.07.2018 15:00:00 21,2 16,4 19,0 1014,6
12.07.2018 14:00:00 - - - -
12.07.2018 13:00:00 21,0 16,0 18,9 1015,0
12.07.2018 12:00:00 20,5 16,7 18,8 1015,1
12.07.2018 11:00:00 20,2 16,7 18,7 1015,1
12.07.2018 10:00:00 - - - -
12.07.2018 09:00:00 - - - -
12.07.2018 08:00:00 18,2 16,5 18,3 1015,4
12.07.2018 07:00:00 18,2 16,2 18,3 1015,3
12.07.2018 06:00:00 - - - -
12.07.2018 05:00:00 17,7 16,5 18,2 1015,2
12.07.2018 04:00:00 17,7 16,7 18,2 1015,3
12.07.2018 03:00:00 17,9 16,9 18,2 1015,5
12.07.2018 02:00:00 18,0 17,2 18,3 1015,9
12.07.2018 01:00:00 18,2 17,4 18,1 1016,1
12.07.2018 00:00:00 18,2 17,2 18,0 1015,8
11.07.2018 23:00:00 18,5 16,4 18,2 1015,8
11.07.2018 22:00:00 18,2 16,5 18,4 1016,1
11.07.2018 21:00:00 18,5 16,0 18,3 1016,0
11.07.2018 20:00:00 18,7 16,4 18,4 1016,0
11.07.2018 19:00:00 19,5 16,5 18,4 1015,7
11.07.2018 18:00:00 19,4 16,0 18,5 1015,6
11.07.2018 17:00:00 22,4 16,5 18,4 1015,8
11.07.2018 16:00:00 20,5 16,2 18,2 1016,0
11.07.2018 15:00:00 - - - -
11.07.2018 14:00:00 20,4 16,2 18,0 1016,0
11.07.2018 13:00:00 19,0 15,4 17,5 1016,2
11.07.2018 12:00:00 18,5 15,4 17,4 1016,3
11.07.2018 11:00:00 - - - -
11.07.2018 10:00:00 18,4 14,5 17,4 1016,3
11.07.2018 09:00:00 17,9 14,7 17,5 1016,6
11.07.2018 08:00:00 17,5 15,0 17,5 1016,4
11.07.2018 07:00:00 17,5 15,2 17,6 1016,0
11.07.2018 06:00:00 17,2 15,4 17,7 1016,4
11.07.2018 05:00:00 17,2 15,0 17,7 1016,4
11.07.2018 04:00:00 17,2 15,5 17,6 1016,7
11.07.2018 03:00:00 17,2 15,5 17,5 1017,1
11.07.2018 02:00:00 - - - -
11.07.2018 01:00:00 17,2 15,5 17,7 1017,5
11.07.2018 00:00:00 17,2 15,5 17,7 1017,8
10.07.2018 23:00:00 17,5 14,9 17,5 1017,7
10.07.2018 22:00:00 - - - -
10.07.2018 21:00:00 - - - -
10.07.2018 20:00:00 - - - -
10.07.2018 19:00:00 15,7 13,0 16,7 1017,7
10.07.2018 18:00:00 15,9 13,5 16,7 1017,7

tt = temperature
td = dewpoint
tw = water temperature
ppp = reduced air pressure

Next stations